RASAT

Last updated on Sat Jun 21 2025 00:02:28 GMT+0000 (Coordinated Universal Time)

1 37791U 11044D 25171.57130178 .00000381 00000+0 75466-4 0 9998 2 37791 98.0683 263.4370 0019421 257.5492 227.1625 14.67600805740136
UTC large
Height (km)
Speed (km/s)
/
Latitude / Longitude
Inclination (degrees)
Orbital Period (minutes)
Azimuth
Elevation
Range (km)
Doppler Factor

Next 0 passes for location: London (51.5072 / 0.1276)

Sorry there are no passes over London.